Waco Regional Airport
KACT : now visible

Airfield :











YOU CAN JOIN US ON...

 
LOGIN :

Register | Disclaimer

   EN    FR    IT 

 









Legend :    VFR   Marginal VFR   IFR   Intensive IFR   Very Intensive IFR
Visi :
Ceiling :
>= 8 km
>= 3000ft
5 to 8 km
1000 to 3000 ft
1500m to 5 km
500 to 1000 ft
800 to 1500m
200 to 500 ft
< 800m
< 200 ft
Symbols :   Thunderstorms  Fog  Heavy snow  Heavy precipitations  Wind > 20 kt







- Airport Elevation : 516 ft
- IATA code : ACT


KACT - Waco Regional

CURRENT METAR :
  • 171251Z 16014KT 10SM BKN023 26/24 A3003 RMK AO2 SLP161 T02610239 $

EXPIRED METARs :
  • 171151Z COR 17011KT 10SM 26/24 A3003 RMK AO2 SLPNO 53010 $
  • 171051Z AUTO A3001 RMK AO2 SLPNO PWINO $

TAF KACT
Valid from the 17 at 12:00 until the 18 at 12:00 UTC


171131Z 1712/1812 17012KT P6SM FEW015 SCT250
TEMPO 1712/1715 BKN015
KZFW FIR / North America



MET'MAP, your aeronautical weather chart ! - Copyright ORBIFLY December 2007 - Disclaimer

ORBIFLY MET'MAP TEAM :

Programming & Development : Alexandra Zaïnal
Concept & Development : Baudouin d'Aumeries
Co-Development & Prog : Marc-Olivier Méhu
Technical & hardware support : Manuel Goepfert

Contact : metmap@orbifly.com




SOURCES & CREDITS :

   NOAA       Earth
Advisory